This demonstration page uses our WeatherBlox Daily Observations layout. Learn more.

Left ArrowRight Arrow

Hourly Observations for January 10, 2017

Temp ( °F °C ) Dew Point ( °F °C ) Humidity (%) Winds ( mph kmh ) Pressure ( in mb ) Visibility ( mi km ) Precip ( " mm )
12:53 am 00:53 Clear 30 -1.1 25 -3.9 82 82 Calm 29.45 997 10 16 0.00 0.00
1:53 am 01:53 Clear 31 -0.6 26 -3.3 82 82 Calm 29.41 996 10 16 0.00 0.00
2:53 am 02:53 Cloudy 33 0.6 27 -2.8 78 78 WSW 6 9 29.41 996 10 16 0.00 0.00
3:53 am 03:53 Cloudy 38 3.3 32 0 79 79 WNW 14 22 29.39 995 10 16 0.00 0.00
4:53 am 04:53 Cloudy with Light Rain 42 5.6 36 2.2 79 79 WNW 18 30 29.39 995 10 16 0.00 0.00
5:53 am 05:53 Partly Cloudy 42 5.6 35 1.7 76 76 WNW 20 31 29.45 997 10 16 0.00 0.00
6:53 am 06:53 Partly Cloudy 32 0 27 -2.8 82 82 NNW 26 43 29.57 1001 10 16 0.00 0.00
7:30 am 07:30 Mostly Cloudy 30 -1 25 -4 80 80 NW 29 46 29.68 1005 10 16 0.00 0.00
7:53 am 07:53 Mostly Cloudy 28 -2.2 22 -5.6 78 78 NNW 25 41 29.67 1005 10 16 0.00 0.00
8:53 am 08:53 Sunny 26 -3.3 19 -7.2 75 75 NW 22 35 29.76 1008 10 16 0.00 0.00
9:53 am 09:53 Sunny 27 -2.8 19 -7.2 72 72 NW 26 43 29.82 1010 10 16 0.00 0.00
10:53 am 10:53 Sunny 30 -1.1 20 -6.7 66 66 NW 23 37 29.85 1011 10 16 0.00 0.00
11:44 am 11:44 Mostly Cloudy 32 0 23 -5 69 69 NW 18 30 29.91 1013 10 16 0.00 0.00
11:53 am 11:53 Mostly Cloudy 33 0.6 23 -5 66 66 NW 17 28 29.86 1011 10 16 0.00 0.00
12:06 pm 12:06 Partly Cloudy 34 1 25 -4 70 70 NW 18 30 29.88 1012 10 16 0.00 0.00
12:53 pm 12:53 Sunny 36 2.2 26 -3.3 67 67 WNW 14 22 29.85 1011 10 16 0.00 0.00
1:53 pm 13:53 Sunny 38 3.3 27 -2.8 65 65 WNW 12 19 29.84 1011 10 16 0.00 0.00
2:53 pm 14:53 Sunny 39 3.9 28 -2.2 65 65 W 9 15 29.83 1010 10 16 0.00 0.00
3:53 pm 15:53 Sunny 41 5 28 -2.2 60 60 NW 6 9 29.82 1010 10 16 0.00 0.00
4:53 pm 16:53 Sunny 39 3.9 28 -2.2 65 65 Calm 29.81 1010 10 16 0.00 0.00
5:53 pm 17:53 Clear 37 2.8 28 -2.2 70 70 S 6 9 29.85 1011 10 16 0.00 0.00
6:53 pm 18:53 Clear 35 1.7 25 -3.9 67 67 S 9 15 29.85 1011 10 16 0.00 0.00
7:53 pm 19:53 Clear 35 1.7 25 -3.9 67 67 SSE 12 19 29.83 1010 10 16 0.00 0.00
8:53 pm 20:53 Clear 34 1.1 25 -3.9 70 70 S 9 15 29.81 1009 10 16 0.00 0.00
9:53 pm 21:53 Clear 35 1.7 26 -3.3 70 70 S 10 17 29.78 1009 10 16 0.00 0.00
10:53 pm 22:53 Clear 37 2.8 26 -3.3 65 65 S 12 19 29.75 1007 10 16 0.00 0.00
11:53 pm 23:53 Clear 37 2.8 25 -3.9 62 62 S 9 15 29.74 1007 10 16 0.00 0.00

Powered by AerisWeather